When you browse on this site, cookies collect data to enhance your experience and personalize the content and advertising you see.
Visit our Privacy Policy to learn more. By continuing to use the site, you agree to this use of cookies and data.
  • In Hungary
  • List of Countries
  • For 7 days
  • Water Temperature
  • Satellite Maps
  • Weather Map
  • News
  • Weather Widgets
  • user-avatar
    Login

    Hourly Weather Exeter

    Today, 22 January, Tuesday

    Time Temperature Precipitation Wind Pressure Humidity
    00:00 +4°C° 1.4 mm 8 mps 748 mmHg 84%
    01:00 +3°C° 0 mm 7 mps 748 mmHg 82%
    02:00 +2°C° 0 mm 6 mps 748 mmHg 81%
    03:00 +1°C° 0 mm 5 mps 747 mmHg 80%
    04:00 0°C° 0 mm 5 mps 747 mmHg 80%
    05:00 0°C° 0 mm 5 mps 747 mmHg 81%
    06:00 0°C° 0 mm 4 mps 747 mmHg 82%
    07:00 0°C° 0 mm 4 mps 747 mmHg 82%
    08:00 0°C° 0 mm 4 mps 746 mmHg 82%
    09:00 0°C° 0 mm 4 mps 746 mmHg 82%
    10:00 +1°C° 0.4 mm 5 mps 746 mmHg 81%
    11:00 +2°C° 0.4 mm 5 mps 745 mmHg 80%
    12:00 +3°C° 0.4 mm 6 mps 745 mmHg 79%
    13:00 +3°C° 0.2 mm 6 mps 744 mmHg 77%
    14:00 +3°C° 0.2 mm 7 mps 744 mmHg 75%
    15:00 +3°C° 0.2 mm 7 mps 744 mmHg 73%
    16:00 +2°C° 0 mm 7 mps 744 mmHg 76%
    17:00 +1°C° 0 mm 6 mps 744 mmHg 78%
    18:00 0°C° 0 mm 5 mps 744 mmHg 81%
    19:00 0°C° 0 mm 5 mps 744 mmHg 82%
    20:00 0°C° 0 mm 4 mps 743 mmHg 82%
    21:00 0°C° 0 mm 4 mps 743 mmHg 83%
    22:00 -1°C° 0.1 mm 4 mps 743 mmHg 84%
    23:00 -1°C° 0.1 mm 4 mps 744 mmHg 84%

    Tomorrow, 23 January, Wednesday

    Time Temperature Precipitation Wind Pressure Humidity
    00:00 -1°C° 0.1 mm 4 mps 744 mmHg 85%
    01:00 -1°C° 0 mm 4 mps 744 mmHg 84%
    02:00 -1°C° 0 mm 4 mps 744 mmHg 83%
    03:00 -1°C° 0 mm 4 mps 744 mmHg 83%
    04:00 -1°C° 0 mm 5 mps 744 mmHg 82%
    05:00 -1°C° 0 mm 5 mps 745 mmHg 82%
    06:00 -1°C° 0 mm 5 mps 745 mmHg 81%
    07:00 -1°C° 0 mm 4 mps 746 mmHg 81%
    08:00 -1°C° 0 mm 4 mps 747 mmHg 81%
    09:00 -1°C° 0 mm 4 mps 747 mmHg 81%
    10:00 0°C° 0 mm 5 mps 748 mmHg 77%
    11:00 +1°C° 0 mm 5 mps 748 mmHg 73%
    12:00 +3°C° 0 mm 6 mps 749 mmHg 69%
    13:00 +3°C° 0 mm 5 mps 749 mmHg 70%
    14:00 +3°C° 0 mm 5 mps 749 mmHg 71%
    15:00 +4°C° 0 mm 4 mps 749 mmHg 72%
    16:00 +3°C° 0 mm 4 mps 750 mmHg 76%
    17:00 +1°C° 0 mm 3 mps 751 mmHg 79%
    18:00 0°C° 0 mm 3 mps 751 mmHg 83%
    19:00 +1°C° 0 mm 2 mps 752 mmHg 83%
    20:00 +1°C° 0 mm 2 mps 752 mmHg 84%
    21:00 +2°C° 0 mm 1 mps 753 mmHg 85%
    22:00 +1°C° 0 mm 1 mps 753 mmHg 85%
    23:00 +1°C° 0 mm 1 mps 753 mmHg 85%

    Day after tomorrow, 24 January, Thursday

    Time Temperature Precipitation Wind Pressure Humidity
    00:00 +1°C° 0 mm 1 mps 754 mmHg 85%
    01:00 +2°C° 0 mm 1 mps 754 mmHg 84%
    02:00 +2°C° 0 mm 1 mps 754 mmHg 83%
    03:00 +2°C° 0 mm 1 mps 754 mmHg 82%
    04:00 +3°C° 0.2 mm 1 mps 754 mmHg 83%
    05:00 +3°C° 0.2 mm 1 mps 754 mmHg 83%
    06:00 +4°C° 0.2 mm 1 mps 754 mmHg 84%
    07:00 +3°C° 0.4 mm 2 mps 754 mmHg 86%
    08:00 +3°C° 0.4 mm 3 mps 754 mmHg 88%
    09:00 +3°C° 0.4 mm 4 mps 754 mmHg 90%
    10:00 +4°C° 0.2 mm 4 mps 754 mmHg 91%
    11:00 +5°C° 0.2 mm 5 mps 754 mmHg 92%
    12:00 +6°C° 0.2 mm 5 mps 754 mmHg 93%
    13:00 +6°C° 0.2 mm 5 mps 754 mmHg 94%
    14:00 +7°C° 0.2 mm 4 mps 754 mmHg 95%
    15:00 +8°C° 0.2 mm 3 mps 754 mmHg 97%
    16:00 +8°C° 0 mm 4 mps 754 mmHg 96%
    17:00 +8°C° 0 mm 4 mps 754 mmHg 96%
    18:00 +8°C° 0 mm 5 mps 754 mmHg 95%
    19:00 +7°C° 0 mm 4 mps 755 mmHg 95%
    20:00 +6°C° 0 mm 4 mps 755 mmHg 95%
    21:00 +5°C° 0 mm 4 mps 755 mmHg 95%
    22:00 +6°C° 0 mm 4 mps 755 mmHg 95%
    23:00 +6°C° 0 mm 5 mps 756 mmHg 95%

    25 January, Friday

    Time Temperature Precipitation Wind Pressure Humidity
    00:00 +7°C° 0 mm 5 mps 756 mmHg 95%
    01:00 +7°C° 0 mm 5 mps 756 mmHg 95%
    02:00 +7°C° 0 mm 5 mps 756 mmHg 95%
    03:00 +7°C° 0 mm 4 mps 756 mmHg 95%
    04:00 +7°C° 0 mm 4 mps 755 mmHg 95%
    05:00 +7°C° 0 mm 4 mps 755 mmHg 95%
    06:00 +7°C° 0 mm 4 mps 755 mmHg 95%
    07:00 +7°C° 0 mm 4 mps 755 mmHg 94%
    08:00 +7°C° 0 mm 4 mps 756 mmHg 93%
    09:00 +7°C° 0 mm 4 mps 756 mmHg 92%
    10:00 +7°C° 0 mm 4 mps 756 mmHg 89%
    11:00 +8°C° 0 mm 5 mps 756 mmHg 85%
    12:00 +8°C° 0 mm 6 mps 756 mmHg 82%
    13:00 +9°C° 0 mm 6 mps 755 mmHg 82%
    14:00 +9°C° 0 mm 6 mps 755 mmHg 83%
    15:00 +9°C° 0 mm 6 mps 754 mmHg 84%
    16:00 +9°C° 0 mm 6 mps 754 mmHg 87%
    17:00 +9°C° 0 mm 6 mps 754 mmHg 90%
    18:00 +9°C° 0 mm 6 mps 753 mmHg 93%
    19:00 +9°C° 0.1 mm 6 mps 753 mmHg 93%
    20:00 +9°C° 0.1 mm 6 mps 753 mmHg 93%
    21:00 +9°C° 0.1 mm 7 mps 752 mmHg 93%
    22:00 +9°C° 0.1 mm 7 mps 752 mmHg 92%
    23:00 +9°C° 0.1 mm 7 mps 751 mmHg 92%

    26 January, Saturday

    Time Temperature Precipitation Wind Pressure Humidity
    00:00 +9°C° 0.1 mm 6 mps 751 mmHg 92%
    01:00 +9°C° 0.2 mm 7 mps 750 mmHg 92%
    02:00 +9°C° 0.2 mm 8 mps 749 mmHg 92%
    03:00 +9°C° 0.2 mm 8 mps 748 mmHg 92%
    04:00 +9°C° 1.2 mm 8 mps 748 mmHg 92%
    05:00 +9°C° 1.2 mm 7 mps 747 mmHg 93%
    06:00 +9°C° 1.2 mm 6 mps 746 mmHg 94%
    07:00 +8°C° 1.9 mm 7 mps 747 mmHg 93%
    08:00 +6°C° 1.9 mm 7 mps 747 mmHg 92%
    09:00 +4°C° 1.9 mm 7 mps 747 mmHg 91%
    10:00 +5°C° 0.4 mm 8 mps 747 mmHg 85%
    11:00 +5°C° 0.4 mm 8 mps 748 mmHg 80%
    12:00 +5°C° 0.4 mm 9 mps 748 mmHg 74%
    13:00 +3°C° 0 mm 9 mps 749 mmHg 73%
    14:00 +3°C° 0 mm 9 mps 749 mmHg 71%
    15:00 +3°C° 0 mm 9 mps 749 mmHg 69%
    16:00 +2°C° 0 mm 8 mps 750 mmHg 70%
    17:00 +3°C° 0 mm 7 mps 750 mmHg 71%
    18:00 +2°C° 0 mm 7 mps 751 mmHg 72%
    19:00 +2°C° 0 mm 6 mps 751 mmHg 73%
    20:00 +2°C° 0 mm 6 mps 751 mmHg 73%
    21:00 +2°C° 0 mm 6 mps 752 mmHg 74%
    22:00 +2°C° 0.1 mm 6 mps 752 mmHg 74%
    23:00 +2°C° 0.1 mm 6 mps 752 mmHg 74%

    27 January, Sunday

    Time Temperature Precipitation Wind Pressure Humidity
    00:00 +2°C° 0.1 mm 6 mps 752 mmHg 75%
    01:00 +2°C° 0 mm 6 mps 751 mmHg 76%
    02:00 +2°C° 0 mm 5 mps 751 mmHg 77%
    03:00 +2°C° 0 mm 5 mps 751 mmHg 78%
    04:00 +2°C° 0.1 mm 5 mps 750 mmHg 80%
    05:00 +3°C° 0.1 mm 6 mps 748 mmHg 83%
    06:00 +3°C° 0.1 mm 6 mps 747 mmHg 85%
    07:00 +4°C° 0.6 mm 7 mps 746 mmHg 85%
    08:00 +5°C° 0.6 mm 7 mps 745 mmHg 85%
    09:00 +6°C° 0.6 mm 8 mps 744 mmHg 85%
    10:00 +6°C° 0.1 mm 9 mps 744 mmHg 81%
    11:00 +6°C° 0.1 mm 10 mps 743 mmHg 77%
    12:00 +6°C° 0.1 mm 11 mps 743 mmHg 73%
    13:00 +6°C° 0.1 mm 11 mps 743 mmHg 75%
    14:00 +6°C° 0.1 mm 11 mps 743 mmHg 76%
    15:00 +5°C° 0.1 mm 10 mps 744 mmHg 78%
    16:00 +5°C° 0 mm 10 mps 745 mmHg 79%
    17:00 +3°C° 0 mm 9 mps 746 mmHg 79%
    18:00 +2°C° 0 mm 8 mps 747 mmHg 80%
    19:00 +2°C° 0 mm 7 mps 748 mmHg 79%
    20:00 0°C° 0 mm 7 mps 749 mmHg 77%
    21:00 +1°C° 0 mm 6 mps 750 mmHg 75%
    22:00 +1°C° 0 mm 5 mps 750 mmHg 76%
    23:00 0°C° 0 mm 4 mps 750 mmHg 77%
    Show more